| time (UTC) | temp C | wind direction | speed KPH | gust KPH | rain 1hr cm | rain 24hr cm | rain mn cm | humidity % | barometer mb |
| 20260509203055 | 35 | 315 | 4.8 | 14.5 | 0.00 | 0.00 | 0.00 | 12 | 1003.5 |
| 20260509201551 | 35 | 273 | 6.4 | 16.1 | 0.00 | 0.00 | 0.00 | 11 | 1003.7 |
| 20260509200048 | 35 | 321 | 4.8 | 12.9 | 0.00 | 0.00 | 0.00 | 12 | 1003.9 |
| 20260509194545 | 35 | 120 | 0.0 | 11.3 | 0.00 | 0.00 | 0.00 | 12 | 1004.2 |
| 20260509193046 | 33 | 235 | 1.6 | 9.7 | 0.00 | 0.00 | 0.00 | 13 | 1004.5 |
| 20260509191557 | 32 | 219 | 1.6 | 11.3 | 0.00 | 0.00 | 0.00 | 15 | 1004.6 |
| 20260509190046 | 32 | 231 | 3.2 | 8.0 | 0.00 | 0.00 | 0.00 | 15 | 1004.8 |
| 20260509184537 | 32 | 278 | 1.6 | 8.0 | 0.00 | 0.00 | 0.00 | 16 | 1005.0 |
| 20260509183038 | 32 | 94 | 1.6 | 4.8 | 0.00 | 0.00 | 0.00 | 16 | 1005.3 |
| 20260509181528 | 31 | 314 | 3.2 | 6.4 | 0.00 | 0.00 | 0.00 | 16 | 1005.6 |
| 20260509180024 | 30 | 229 | 0.0 | 4.8 | 0.00 | 0.00 | 0.00 | 17 | 1005.9 |
| 20260509174524 | 30 | 278 | 0.0 | 4.8 | 0.00 | 0.00 | 0.00 | 18 | 1006.0 |
| 20260509173021 | 29 | 267 | 1.6 | 6.4 | 0.00 | 0.00 | 0.00 | 19 | 1006.1 |
| 20260509171518 | 29 | 291 | 1.6 | 4.8 | 0.00 | 0.00 | 0.00 | 19 | 1006.2 |
| 20260509170027 | 29 | 325 | 0.0 | 6.4 | 0.00 | 0.00 | 0.00 | 20 | 1006.2 |
| 20260509164513 | 28 | 224 | 3.2 | 8.0 | 0.00 | 0.00 | 0.00 | 20 | 1006.3 |
| 20260509163011 | 27 | 263 | 0.0 | 1.6 | 0.00 | 0.00 | 0.00 | 21 | 1006.3 |
| 20260509161509 | 27 | 326 | 0.0 | 4.8 | 0.00 | 0.00 | 0.00 | 22 | 1006.4 |
| 20260509160011 | 27 | 295 | 0.0 | 1.6 | 0.00 | 0.00 | 0.00 | 23 | 1006.5 |
| 20260509154504 | 26 | 350 | 0.0 | 1.6 | 0.00 | 0.00 | 0.00 | 26 | 1006.4 |
| 20260509153102 | 25 | 290 | 0.0 | 1.6 | 0.00 | 0.00 | 0.00 | 28 | 1006.5 |
| 20260509151605 | 24 | 244 | 0.0 | 1.6 | 0.00 | 0.00 | 0.00 | 29 | 1006.5 |
| 20260509150055 | 24 | 226 | 0.0 | 0.0 | 0.00 | 0.00 | 0.00 | 28 | 1006.4 |
| 20260509144552 | 22 | 223 | 0.0 | 0.0 | 0.00 | 0.00 | 0.00 | 33 | 1006.5 |
| 20260509143049 | 21 | 199 | 0.0 | 0.0 | 0.00 | 0.00 | 0.00 | 35 | 1006.5 |
| 20260509141550 | 21 | 82 | 0.0 | 0.0 | 0.00 | 0.00 | 0.00 | 35 | 1006.4 |
| 20260509140046 | 20 | 83 | 0.0 | 0.0 | 0.00 | 0.00 | 0.00 | 39 | 1006.3 |
| 20260509134554 | 19 | 83 | 0.0 | 1.6 | 0.00 | 0.00 | 0.00 | 38 | 1006.3 |
| 20260509133042 | 17 | 91 | 0.0 | 0.0 | 0.00 | 0.00 | 0.00 | 42 | 1006.0 |
| 20260509131557 | 17 | 92 | 0.0 | 0.0 | 0.00 | 0.00 | 0.00 | 42 | 1005.9 |
| 20260509130049 | 17 | 92 | 0.0 | 0.0 | 0.00 | 0.00 | 0.00 | 42 | 1005.8 |
| 20260509124540 | 17 | 92 | 0.0 | 0.0 | 0.00 | 0.00 | 0.00 | 41 | 1005.7 |
| 20260509123032 | 18 | 92 | 0.0 | 0.0 | 0.00 | 0.00 | 0.00 | 36 | 1005.5 |
| 20260509121530 | 18 | 92 | 0.0 | 0.0 | 0.00 | 0.00 | 0.00 | 38 | 1005.4 |
| 20260509120025 | 18 | 92 | 0.0 | 0.0 | 0.00 | 0.00 | 0.00 | 36 | 1005.3 |
| 20260509114524 | 18 | 92 | 0.0 | 0.0 | 0.00 | 0.00 | 0.00 | 38 | 1005.2 |
| 20260509113022 | 18 | 92 | 0.0 | 0.0 | 0.00 | 0.00 | 0.00 | 33 | 1005.1 |
| 20260509111521 | 18 | 77 | 0.0 | 1.6 | 0.00 | 0.00 | 0.00 | 34 | 1005.2 |
| 20260509110024 | 19 | 81 | 0.0 | 0.0 | 0.00 | 0.00 | 0.00 | 32 | 1005.1 |
| 20260509104518 | 19 | 81 | 0.0 | 0.0 | 0.00 | 0.00 | 0.00 | 32 | 1005.1 |
| 20260509103020 | 19 | 81 | 0.0 | 1.6 | 0.00 | 0.00 | 0.00 | 32 | 1005.1 |
| 20260509101520 | 19 | 81 | 0.0 | 1.6 | 0.00 | 0.00 | 0.00 | 36 | 1005.3 |
| 20260509100016 | 20 | 95 | 0.0 | 0.0 | 0.00 | 0.00 | 0.00 | 29 | 1005.2 |
| 20260509094514 | 20 | 95 | 0.0 | 1.6 | 0.00 | 0.00 | 0.00 | 28 | 1005.2 |
| 20260509093018 | 20 | 95 | 0.0 | 0.0 | 0.00 | 0.00 | 0.00 | 27 | 1005.3 |
| 20260509091509 | 21 | 95 | 0.0 | 0.0 | 0.00 | 0.00 | 0.00 | 26 | 1005.3 |
| 20260509090008 | 21 | 95 | 0.0 | 3.2 | 0.00 | 0.00 | 0.00 | 25 | 1005.4 |
| 20260509084512 | 21 | 103 | 0.0 | 3.2 | 0.00 | 0.00 | 0.00 | 26 | 1005.3 |
| 20260509083005 | 21 | 101 | 0.0 | 3.2 | 0.00 | 0.00 | 0.00 | 27 | 1005.2 |
| 20260509081508 | 21 | 111 | 0.0 | 0.0 | 0.00 | 0.00 | 0.00 | 26 | 1005.4 |
| 20260509080004 | 21 | 113 | 0.0 | 1.6 | 0.00 | 0.00 | 0.00 | 34 | 1005.3 |
| 20260509074503 | 21 | 349 | 0.0 | 1.6 | 0.00 | 0.00 | 0.00 | 27 | 1005.4 |
| 20260509073003 | 21 | 349 | 0.0 | 0.0 | 0.00 | 0.00 | 0.00 | 27 | 1005.4 |
| 20260509071616 | 21 | 349 | 0.0 | 0.0 | 0.00 | 0.00 | 0.00 | 30 | 1005.4 |
| 20260509070105 | 21 | 349 | 0.0 | 1.6 | 0.00 | 0.00 | 0.00 | 26 | 1005.2 |
| 20260509064555 | 21 | 349 | 0.0 | 0.0 | 0.00 | 0.00 | 0.00 | 27 | 1005.2 |
| 20260509063054 | 21 | 335 | 0.0 | 0.0 | 0.00 | 0.00 | 0.00 | 33 | 1005.2 |
| 20260509061600 | 22 | 335 | 0.0 | 0.0 | 0.00 | 0.00 | 0.00 | 33 | 1005.1 |
| 20260509060057 | 22 | 335 | 0.0 | 1.6 | 0.00 | 0.00 | 0.00 | 28 | 1005.1 |
| 20260509054613 | 22 | 335 | 0.0 | 3.2 | 0.00 | 0.00 | 0.00 | 28 | 1004.9 |
| 20260509053142 | 23 | 335 | 0.0 | 0.0 | 0.00 | 0.00 | 0.00 | 24 | 1004.9 |
| 20260509051554 | 23 | 335 | 0.0 | 1.6 | 0.00 | 0.00 | 0.00 | 33 | 1004.8 |
| 20260509050052 | 22 | 335 | 0.0 | 0.0 | 0.00 | 0.00 | 0.00 | 24 | 1004.8 |
| 20260509044551 | 23 | 335 | 0.0 | 0.0 | 0.00 | 0.00 | 0.00 | 26 | 1004.8 |
| 20260509043050 | 24 | 335 | 0.0 | 0.0 | 0.00 | 0.00 | 0.00 | 24 | 1004.6 |
| 20260509041548 | 24 | 335 | 0.0 | 1.6 | 0.00 | 0.00 | 0.00 | 24 | 1004.4 |
| 20260509040107 | 24 | 335 | 0.0 | 1.6 | 0.00 | 0.00 | 0.00 | 24 | 1004.2 |
| 20260509034607 | 25 | 335 | 0.0 | 0.0 | 0.00 | 0.00 | 0.00 | 24 | 1004.2 |
| 20260509033047 | 27 | 335 | 0.0 | 1.6 | 0.00 | 0.00 | 0.00 | 20 | 1004.0 |
| 20260509031546 | 27 | 335 | 1.6 | 6.4 | 0.00 | 0.00 | 0.00 | 17 | 1003.8 |
| 20260509030046 | 28 | 314 | 3.2 | 8.0 | 0.00 | 0.00 | 0.00 | 16 | 1003.7 |
| 20260509024546 | 28 | 324 | 3.2 | 6.4 | 0.00 | 0.00 | 0.00 | 15 | 1003.5 |
| 20260509023048 | 29 | 327 | 1.6 | 6.4 | 0.00 | 0.00 | 0.00 | 15 | 1003.4 |
| 20260509021544 | 28 | 326 | 1.6 | 6.4 | 0.00 | 0.00 | 0.00 | 15 | 1003.2 |
| 20260509020047 | 30 | 301 | 3.2 | 8.0 | 0.00 | 0.00 | 0.00 | 14 | 1003.1 |
| 20260509014544 | 31 | 320 | 4.8 | 12.9 | 0.00 | 0.00 | 0.00 | 12 | 1003.0 |
| 20260509013057 | 31 | 306 | 4.8 | 16.1 | 0.00 | 0.00 | 0.00 | 12 | 1002.7 |
| 20260509011544 | 32 | 327 | 9.7 | 14.5 | 0.00 | 0.00 | 0.00 | 11 | 1002.7 |
| 20260509010044 | 32 | 318 | 8.0 | 14.5 | 0.00 | 0.00 | 0.00 | 11 | 1002.8 |
| 20260509004542 | 32 | 286 | 8.0 | 19.3 | 0.00 | 0.00 | 0.00 | 12 | 1002.8 |
| 20260509003059 | 32 | 313 | 4.8 | 20.9 | 0.00 | 0.00 | 0.00 | 12 | 1002.8 |
| 20260509001538 | 33 | 290 | 3.2 | 12.9 | 0.00 | 0.00 | 0.00 | 12 | 1002.8 |
| 20260509000038 | 33 | 313 | 8.0 | 17.7 | 0.00 | 0.00 | 0.00 | 11 | 1002.8 |
| 20260508234540 | 33 | 339 | 9.7 | 24.1 | 0.00 | 0.00 | 0.00 | 11 | 1002.7 |
| 20260508233033 | 33 | 322 | 8.0 | 20.9 | 0.00 | 0.00 | 0.00 | 11 | 1002.9 |
| 20260508231536 | 33 | 312 | 8.0 | 20.9 | 0.00 | 0.00 | 0.00 | 12 | 1003.0 |
| 20260508230033 | 33 | 327 | 6.4 | 22.5 | 0.00 | 0.00 | 0.00 | 12 | 1002.9 |
| 20260508224530 | 33 | 353 | 11.3 | 19.3 | 0.00 | 0.00 | 0.00 | 12 | 1003.1 |
| 20260508223026 | 33 | 286 | 8.0 | 22.5 | 0.00 | 0.00 | 0.00 | 12 | 1003.3 |
| 20260508221523 | 33 | 307 | 3.2 | 20.9 | 0.00 | 0.00 | 0.00 | 14 | 1003.4 |
| 20260508220023 | 33 | 289 | 8.0 | 22.5 | 0.00 | 0.00 | 0.00 | 13 | 1003.6 |
| 20260508214519 | 32 | 292 | 11.3 | 25.7 | 0.00 | 0.00 | 0.00 | 12 | 1003.9 |
| 20260508213015 | 32 | 317 | 6.4 | 19.3 | 0.00 | 0.00 | 0.00 | 14 | 1004.0 |
| 20260508211513 | 32 | 323 | 11.3 | 20.9 | 0.00 | 0.00 | 0.00 | 14 | 1004.3 |
| 20260508210016 | 32 | 334 | 12.9 | 25.7 | 0.00 | 0.00 | 0.00 | 14 | 1004.5 |
| 20260508204510 | 32 | 243 | 11.3 | 22.5 | 0.00 | 0.00 | 0.00 | 14 | 1004.6 |